Location: Ecklingerode
(51.5036°N, 10.3122°E)
Time: 01:56:48
(UTC+00:00)

Cosmos 2082 - Pass Details

Date: 29 October 2020
Orbit: 832 x 857 km, 71.0° (Epoch: 23 November)

Event Time Altitude Azimuth Distance (km) Brightness Sun altitude
Rises 16:25:54 0° 331° (NNW) 3,436 7.1 -5.2°
Reaches altitude 10° 16:28:33 10° 339° (NNW) 2,499 6.2 -5.6°
Maximum altitude 16:33:54 38° 47° (NE) 1,279 4.3 -6.4°
Drops below altitude 10° 16:39:14 10° 116° (ESE) 2,490 5.7 -7.2°
Sets 16:41:51 0° 124° (SE) 3,422 6.4 -7.6°
